Temperature
8 9 9 9 9 9 9 9 8 8 8 7 7 7 7 6 6 5 5 4 4 4 4 5 6 6 6 6 7 7 7 7 8 8 8 8 8 8 8 9 8 8 8 8
8 9 9 9 9 9 9 9 9 9 8 7 7 7 6 6 5 5 4 4 4 4 4 4 5 5 5 6 6 6 7 7 7 7 7 7 7 8 8 8 8 7 7 8
8 9 9 8 8 8 8 8 8 8 7 7 7 6 6 5 5 4 4 3 3 3 3 4 4 4 4 5 5 5 5 6 6 6 6 6 6 6 7 7 7 7 7 7
7 8 7 7 8 8 8 8 8 8 7 7 6 6 5 5 4 4 3 3 3 3 3 3 3 4 4 4 4 4 4 4 4 5 5 5 5 5 5 6 6 6 6 6
7 8 8 7 7 7 8 7 7 7 7 6 6 5 4 4 3 3 3 2 2 3 3 3 3 3 3 3 3 3 3 3 3 3 4 4 4 4 4 4 5 5 5 5
7 7 8 7 7 7 7 6 7 7 6 6 5 4 3 3 3 3 2 2 2 2 2 2 2 2 2 2 2 2 2 2 2 2 2 3 3 3 3 3 3 3 4 4
7 7 7 7 7 7 6 6 6 6 6 5 4 3 3 3 2 2 2 2 2 2 2 1 1 1 1 1 1 1 1 1 1 1 1 2 2 2 2 2 2 2 2 3
7 7 6 6 6 6 5 6 6 5 5 4 4 3 3 2 2 2 1 1 1 1 1 1 0 0 0 0 0 0 0 0 0 0 0 0 1 1 1 1 1 1 1 2
6 6 6 6 6 5 5 5 5 4 4 3 3 2 2 2 1 1 1 0 0 0 -0 -0 -0 -0 -0 -1 -1 -1 -1 -1 -1 -1 -1 -1 -1 -0 0 0 0 0 0 1
6 6 6 6 5 5 5 4 4 3 3 3 2 2 1 1 1 0 0 -0 -0 -1 -1 -1 -1 -1 -1 -1 -1 -1 -2 -1 -2 -2 -2 -1 -1 -1 -1 -1 -1 -1 -0 -0
5 6 6 5 5 4 4 3 3 3 2 2 2 1 1 0 0 -0 -0 -1 -1 -1 -1 -1 -2 -2 -2 -2 -2 -2 -2 -2 -3 -3 -3 -2 -2 -2 -2 -2 -2 -2 -1 -1
5 6 5 5 5 4 3 3 3 2 2 2 1 1 0 0 -0 -1 -1 -1 -1 -2 -2 -2 -2 -2 -2 -3 -3 -3 -3 -3 -3 -4 -4 -3 -3 -3 -3 -3 -2 -2 -2 -2
6 5 5 5 4 4 3 3 2 2 1 1 1 0 -0 -0 -1 -1 -1 -2 -2 -2 -2 -3 -3 -3 -3 -3 -4 -4 -4 -4 -4 -4 -4 -4 -4 -4 -4 -3 -3 -3 -3 -2
5 5 4 3 3 3 2 2 2 1 1 1 0 -0 -1 -1 -1 -2 -2 -2 -3 -3 -3 -3 -4 -4 -4 -4 -4 -4 -5 -5 -5 -5 -5 -5 -5 -5 -5 -5 -4 -3 -3 -3
4 4 3 3 2 2 2 2 1 1 0 -0 -0 -1 -1 -2 -2 -2 -2 -3 -3 -3 -4 -4 -4 -4 -5 -5 -5 -5 -5 -5 -6 -6 -6 -6 -5 -5 -5 -5 -5 -5 -4 -4
3 2 2 2 2 2 1 1 1 0 -0 -1 -1 -1 -2 -2 -3 -3 -3 -4 -4 -4 -4 -5 -5 -5 -5 -5 -6 -6 -6 -6 -6 -6 -6 -6 -6 -6 -6 -5 -5 -5 -5 -4
2 2 2 1 1 1 1 1 0 -0 -1 -1 -2 -2 -2 -3 -3 -3 -4 -4 -4 -5 -5 -5 -5 -6 -6 -6 -6 -6 -6 -6 -6 -6 -6 -6 -6 -6 -6 -6 -6 -5 -5 -5
3 3 2 2 2 1 0 -0 -0 -1 -1 -2 -2 -3 -3 -4 -4 -4 -4 -5 -5 -5 -5 -6 -6 -6 -6 -7 -7 -7 -7 -7 -7 -7 -7 -7 -7 -7 -6 -6 -6 -6 -5 -5
2 2 2 1 1 1 0 -0 -1 -1 -2 -3 -3 -3 -4 -4 -5 -5 -5 -5 -6 -6 -6 -6 -7 -7 -7 -7 -7 -7 -7 -7 -7 -7 -7 -7 -7 -7 -7 -6 -6 -6 -6 -5
2 1 1 1 1 0 -0 -1 -2 -2 -3 -3 -4 -4 -4 -4 -5 -5 -6 -6 -6 -7 -7 -7 -7 -7 -7 -7 -7 -7 -7 -7 -7 -7 -7 -7 -7 -7 -7 -7 -7 -6 -6 -6
1 1 1 0 -0 -1 -1 -2 -2 -3 -3 -4 -4 -4 -5 -5 -5 -6 -6 -7 -7 -7 -8 -8 -8 -8 -8 -8 -8 -8 -8 -8 -8 -8 -8 -8 -7 -7 -7 -7 -7 -7 -6 -6
1 1 0 -0 -1 -1 -2 -2 -3 -3 -4 -4 -5 -5 -5 -6 -6 -6 -7 -7 -7 -8 -8 -8 -8 -8 -8 -8 -8 -8 -8 -8 -8 -8 -8 -8 -8 -8 -8 -7 -7 -7 -7 -7
1 0 -0 -1 -2 -2 -3 -3 -3 -4 -4 -5 -5 -6 -6 -6 -7 -7 -7 -7 -8 -8 -8 -8 -8 -8 -8 -8 -8 -8 -8 -8 -8 -8 -8 -8 -8 -8 -8 -8 -7 -7 -7 -7
-0 -1 -1 -2 -2 -3 -3 -3 -4 -4 -5 -5 -6 -6 -6 -7 -7 -7 -8 -8 -8 -8 -8 -8 -8 -8 -8 -8 -8 -8 -8 -9 -8 -8 -8 -8 -8 -8 -8 -8 -8 -7 -7 -7
-1 -1 -2 -2 -3 -3 -3 -4 -4 -5 -5 -5 -6 -6 -7 -7 -8 -8 -8 -8 -8 -8 -8 -8 -8 -8 -8 -8 -8 -9 -9 -9 -9 -9 -8 -8 -8 -8 -8 -8 -8 -8 -7 -7
-1 -1 -2 -3 -3 -4 -4 -4 -5 -5 -6 -6 -6 -7 -7 -8 -8 -8 -8 -8 -8 -9 -9 -9 -9 -9 -9 -9 -9 -9 -9 -9 -9 -9 -9 -8 -8 -8 -8 -8 -8 -8 -8 -8
-1 -2 -3 -3 -4 -4 -4 -5 -5 -6 -6 -6 -7 -7 -7 -8 -8 -8 -8 -8 -8 -9 -9 -9 -9 -9 -9 -9 -9 -9 -9 -9 -9 -9 -9 -9 -9 -8 -8 -8 -8 -8 -8 -8
Wind_Speed
2 2 2 3 5 6 5 5 3 5 5 5 5 5 6 6 7 8 8 9 9 9 8 8 8 8 8 8 7 7 6 6 6 5 5 5 4 3 2 1 0 2 2 3
1 1 1 2 5 4 5 5 4 5 5 5 5 6 6 6 6 7 7 7 7 8 8 8 8 8 8 8 8 7 6 6 5 5 5 5 4 3 2 2 1 1 3 4
2 3 3 1 4 3 3 4 4 3 3 4 4 5 4 5 5 6 6 6 7 6 6 6 7 7 7 7 7 6 6 6 6 6 5 5 4 4 3 2 1 2 2 3
3 4 1 2 2 3 2 3 3 3 4 5 5 4 5 5 5 5 6 6 6 6 6 5 5 6 6 6 6 6 6 6 7 6 6 5 5 4 4 3 2 2 3 3
2 3 2 4 2 2 2 1 2 2 4 4 3 2 3 5 5 5 5 5 5 5 5 5 5 6 6 6 6 6 6 6 7 7 6 6 5 5 4 4 3 3 3 3
2 2 1 3 3 2 2 1 2 3 3 2 1 0 1 3 4 4 4 4 4 5 5 5 6 5 5 6 6 6 6 6 6 6 6 6 6 6 4 4 4 4 4 4
2 3 1 2 1 0 1 1 2 3 4 3 2 2 1 3 3 3 3 4 4 5 5 5 6 5 5 5 6 6 6 6 6 6 7 6 6 5 5 4 4 4 5 5
2 3 3 2 1 1 2 3 3 4 4 4 3 3 2 2 3 3 3 4 4 4 5 5 5 5 5 5 6 6 6 7 7 7 7 6 6 6 5 5 5 5 5 5
1 2 3 2 2 3 2 2 3 3 3 2 1 1 1 2 2 3 3 4 4 4 5 5 5 5 6 6 6 6 6 7 7 7 7 6 6 6 5 5 5 5 5 5
3 3 4 4 3 3 2 3 3 3 2 2 1 2 2 2 3 3 3 3 4 5 6 6 6 6 6 7 6 6 7 7 7 7 7 7 6 5 5 5 6 6 6 6
4 3 3 4 5 4 4 3 3 2 1 1 2 3 3 3 3 3 4 4 4 5 6 7 7 7 7 6 6 7 7 7 7 7 7 7 7 6 7 7 8 8 7 6
5 2 3 3 5 5 5 3 3 1 0 1 1 3 4 4 4 4 5 5 5 6 7 7 7 8 7 7 6 7 7 7 6 6 6 6 7 8 10 11 13 14 13 11
2 3 3 4 4 4 3 3 2 1 1 2 2 2 4 4 4 5 6 6 6 7 7 8 8 9 8 7 7 7 8 8 7 7 7 7 7 7 8 9 12 13 13 13
4 4 2 3 3 3 3 3 1 1 1 2 2 3 4 5 5 6 7 7 7 8 8 8 9 9 8 7 7 8 8 9 9 7 8 8 8 7 7 8 8 7 9 13
4 3 3 4 4 3 3 2 1 2 2 2 2 3 4 5 6 7 7 7 7 8 8 9 9 9 7 7 8 9 8 7 7 7 7 8 8 7 7 8 8 8 6 7
4 4 3 4 4 3 2 2 2 2 2 3 3 4 5 6 7 7 7 7 7 9 9 9 10 9 8 8 9 8 8 12 11 8 8 8 7 8 8 8 8 7 7 6
7 5 5 5 4 3 3 2 2 2 2 3 4 5 6 6 7 7 7 7 7 9 9 9 9 9 9 9 9 8 8 9 12 10 8 8 8 8 8 8 8 8 7 8
6 5 5 4 4 3 2 1 0 1 2 3 4 5 6 6 7 8 8 8 9 9 8 7 8 10 10 10 9 8 8 8 8 8 8 8 8 7 7 8 8 9 7 7
5 5 4 4 3 3 2 1 0 1 2 3 4 5 6 7 7 8 8 9 9 10 8 8 14 11 10 11 12 8 8 9 8 8 8 11 10 7 7 7 7 7 6 6
5 5 5 5 4 3 2 1 1 2 2 3 4 5 6 7 7 8 8 8 7 6 8 11 11 9 9 10 13 8 8 8 9 8 8 8 7 7 7 7 7 6 6 5
6 5 5 4 3 2 1 1 1 2 3 3 4 5 7 7 7 7 7 8 7 7 9 13 9 8 9 11 13 8 8 8 8 8 8 7 7 7 6 6 6 6 6 5
5 5 4 3 2 1 1 1 1 2 3 4 4 5 6 7 8 7 7 6 7 12 10 8 8 11 14 14 7 8 8 8 8 7 7 6 7 7 7 6 5 5 5 4
5 4 4 3 2 1 1 1 1 2 3 4 5 5 6 6 6 7 8 6 7 13 11 8 13 18 18 10 7 8 8 8 8 7 7 6 6 6 6 6 5 5 4 4
5 4 4 3 2 1 0 1 2 2 3 4 4 4 5 6 6 5 6 11 14 15 9 12 18 18 16 7 7 7 7 7 7 7 7 6 6 5 5 5 5 4 4 4
5 4 3 3 2 1 1 1 2 3 3 3 4 5 4 4 5 6 7 8 13 14 9 12 17 17 10 7 7 7 7 7 8 7 6 6 6 6 5 5 5 5 4 3
4 3 3 2 2 1 0 1 1 2 3 4 4 4 4 4 5 6 6 8 10 12 9 8 9 11 8 8 8 8 7 8 8 7 7 6 6 6 5 5 6 5 4 3
4 3 2 2 1 1 0 1 1 2 3 3 5 5 5 5 5 6 7 7 7 8 7 7 7 7 7 7 8 7 7 6 6 7 6 6 5 5 6 6 5 5 4 3
Wind_Direction
11 5 26 13 7 13 20 15 58 75 81 95 88 83 75 67 61 56 49 43 37 33 29 25 24 21 20 16 13 12 15 16 12 7 7 7 7 6 5 5 218 187 185 186
325 49 4 14 13 16 16 19 60 80 72 77 82 75 66 59 55 51 45 39 34 30 25 20 18 13 10 8 7 8 10 6 3 5 4 3 359 355 353 343 303 217 205 197
330 320 298 20 15 14 42 26 14 48 84 86 81 76 67 57 51 48 39 33 28 21 17 14 11 8 3 357 359 4 3 0 358 357 356 351 346 341 331 318 293 252 225 210
316 332 356 119 60 23 42 41 43 68 82 80 84 78 66 62 56 44 34 23 16 11 6 4 4 2 354 353 356 358 357 356 354 351 344 340 336 326 314 305 284 266 250 227
327 304 216 133 108 27 355 65 54 77 90 90 98 107 77 61 50 43 30 19 8 360 355 355 358 357 352 349 351 352 349 346 342 337 331 326 320 311 306 299 287 274 263 244
316 311 312 117 107 41 339 182 68 75 84 82 32 334 69 52 44 32 24 13 2 352 351 351 349 351 348 340 342 338 333 328 324 320 316 310 304 298 291 284 274 267 260 249
272 275 293 103 143 240 256 170 84 62 64 64 60 79 81 42 30 22 13 0 354 345 339 335 337 339 329 324 322 318 315 311 309 308 304 297 295 290 281 275 270 258 251 248
236 249 242 131 150 155 132 106 90 72 62 61 66 62 41 17 1 357 352 346 345 336 324 323 326 324 313 306 304 309 310 308 306 304 302 300 293 289 278 266 263 258 253 252
246 213 137 148 116 104 90 102 89 86 69 62 43 23 350 336 337 336 336 334 334 322 313 314 318 319 311 307 311 311 307 302 300 300 298 296 290 286 283 271 262 258 252 250
273 231 169 168 151 130 107 105 90 87 76 43 343 330 328 323 323 322 320 317 316 312 309 309 312 311 303 303 306 303 301 301 299 299 297 296 292 282 273 267 265 261 256 254
253 229 182 190 177 157 134 118 111 100 81 34 332 315 315 310 310 311 311 310 309 303 298 299 303 302 301 300 301 296 293 293 295 293 291 290 285 279 275 264 263 265 258 253
224 199 174 157 146 146 152 162 159 159 255 309 294 299 310 307 308 309 308 306 302 298 296 297 300 299 298 298 295 292 293 293 291 290 287 285 286 287 278 274 278 276 271 267
147 93 87 106 111 127 143 143 133 161 245 286 293 300 308 305 305 305 303 302 298 297 296 297 298 297 298 299 298 292 288 289 288 287 286 285 283 283 290 290 280 277 276 273
130 123 141 161 153 135 125 116 119 217 263 280 299 311 306 300 301 301 298 297 297 297 296 296 296 296 299 303 300 294 291 289 288 284 283 283 280 278 278 283 288 283 275 272
179 170 155 128 123 124 123 130 203 256 272 288 297 295 297 298 296 296 297 299 301 299 299 301 301 301 308 308 302 297 293 288 284 283 282 283 280 277 276 275 275 278 280 276
161 153 146 152 168 168 172 197 236 265 290 302 308 308 307 302 299 299 301 306 308 305 304 304 301 305 312 310 305 299 293 290 290 286 283 283 281 279 278 277 275 272 271 270
156 179 190 197 198 196 196 206 236 280 307 311 313 317 315 311 307 306 310 313 307 302 301 300 303 310 314 310 304 298 294 294 294 290 283 281 279 278 279 279 276 273 268 264
167 162 159 161 173 185 195 193 267 304 306 311 319 317 313 309 305 306 308 312 311 306 301 306 314 318 313 308 304 298 295 293 292 291 289 284 281 276 276 276 277 276 273 270
136 133 130 125 124 134 140 134 356 334 329 328 318 307 302 299 301 305 311 314 311 308 312 321 323 321 311 308 309 298 295 294 294 293 291 290 289 280 278 279 278 277 278 273
117 114 112 106 96 103 109 77 15 332 321 319 311 307 307 307 311 313 311 304 294 299 313 319 321 315 312 311 314 304 300 297 296 296 294 290 288 287 285 284 283 282 279 274
129 124 121 120 112 103 103 77 13 321 320 320 310 304 304 307 311 311 310 308 308 316 320 321 321 313 312 315 315 309 305 302 301 299 298 299 299 296 294 293 293 293 291 287
136 131 128 126 122 108 79 63 15 320 318 317 312 309 311 313 315 311 298 295 311 322 325 315 313 314 321 322 313 309 307 305 303 302 299 299 299 299 299 298 296 295 294 294
132 131 130 128 128 122 47 36 353 317 306 305 308 310 310 309 310 312 313 316 320 322 325 312 317 322 326 326 315 312 311 310 310 308 304 299 297 299 299 298 295 295 296 298
131 127 124 118 117 120 321 321 319 302 294 293 295 299 302 309 309 302 301 316 324 323 319 318 325 328 331 326 315 313 313 311 310 309 310 309 305 303 302 304 306 305 303 302
132 131 133 138 149 182 253 313 309 307 314 314 310 310 305 299 301 309 312 315 321 324 322 324 328 331 332 320 319 316 315 314 317 320 318 320 320 318 316 315 314 312 312 314
143 146 148 155 152 141 98 317 310 316 322 320 317 313 313 311 307 308 312 314 316 324 324 318 321 325 324 321 319 319 318 319 322 323 321 321 320 321 321 321 320 318 318 319
142 141 141 150 149 151 192 265 290 304 315 313 312 314 318 318 317 319 319 318 319 320 319 321 322 321 320 320 320 319 320 320 321 321 321 321 321 321 321 321 321 321 321 324
Height
1458 1455 1454 1455 1453 1451 1451 1450 1454 1456 1457 1461 1462 1463 1463 1463 1463 1462 1461 1460 1459 1458 1457 1455 1454 1453 1452 1451 1450 1450 1450 1449 1449 1449 1449 1448 1448 1448 1449 1449 1450 1451 1452 1454
1459 1454 1454 1456 1454 1454 1454 1453 1454 1456 1461 1462 1463 1464 1464 1465 1464 1464 1463 1463 1462 1460 1459 1457 1456 1454 1453 1452 1451 1450 1449 1448 1448 1447 1446 1446 1446 1446 1446 1446 1446 1447 1448 1449
1461 1455 1454 1459 1459 1457 1457 1458 1457 1459 1463 1463 1464 1465 1466 1466 1466 1466 1465 1464 1463 1462 1460 1458 1457 1455 1454 1452 1451 1449 1448 1447 1446 1445 1444 1443 1443 1443 1442 1442 1442 1443 1444 1444
1463 1460 1465 1465 1460 1459 1459 1459 1459 1461 1462 1464 1465 1466 1467 1467 1467 1467 1466 1465 1464 1462 1461 1459 1457 1455 1454 1452 1450 1449 1447 1446 1444 1443 1442 1441 1440 1439 1439 1439 1439 1439 1439 1439
1466 1463 1458 1462 1461 1461 1461 1462 1462 1462 1463 1465 1466 1466 1467 1468 1468 1467 1466 1465 1464 1462 1460 1458 1456 1455 1453 1451 1449 1447 1446 1444 1443 1441 1440 1438 1437 1436 1435 1435 1434 1434 1434 1435
1464 1465 1461 1462 1461 1461 1463 1464 1464 1463 1464 1465 1465 1467 1470 1468 1467 1466 1465 1464 1462 1460 1459 1457 1455 1453 1451 1449 1447 1445 1444 1442 1440 1438 1437 1435 1433 1432 1431 1431 1430 1430 1430 1430
1467 1465 1460 1462 1461 1462 1466 1467 1465 1464 1465 1465 1466 1468 1469 1467 1466 1465 1464 1462 1461 1459 1457 1455 1453 1451 1449 1447 1445 1443 1441 1439 1437 1435 1433 1431 1429 1428 1427 1426 1425 1424 1424 1424
1464 1466 1467 1462 1461 1464 1465 1464 1464 1464 1465 1465 1466 1466 1466 1466 1465 1464 1462 1461 1459 1457 1455 1453 1451 1449 1446 1444 1442 1440 1438 1435 1433 1431 1429 1427 1425 1423 1422 1421 1419 1419 1418 1418
1464 1466 1462 1461 1461 1462 1462 1463 1463 1464 1464 1465 1465 1465 1464 1464 1463 1462 1460 1459 1457 1455 1453 1451 1449 1446 1443 1441 1438 1436 1433 1431 1429 1426 1424 1422 1420 1418 1416 1415 1414 1413 1413 1412
1462 1458 1458 1459 1460 1461 1461 1462 1462 1463 1463 1463 1463 1463 1462 1461 1460 1459 1458 1456 1454 1452 1449 1447 1445 1443 1440 1437 1435 1432 1429 1426 1424 1421 1419 1417 1415 1413 1411 1410 1409 1408 1407 1407
1460 1457 1457 1457 1458 1459 1459 1460 1461 1461 1461 1461 1461 1461 1460 1459 1458 1456 1454 1453 1451 1448 1446 1443 1441 1439 1436 1433 1431 1427 1424 1422 1419 1416 1414 1411 1409 1408 1406 1404 1404 1402 1401 1401
1457 1454 1454 1455 1455 1456 1457 1458 1459 1459 1459 1459 1459 1458 1457 1456 1455 1453 1451 1449 1447 1444 1442 1439 1437 1434 1431 1429 1426 1423 1419 1416 1413 1411 1408 1406 1403 1401 1399 1398 1397 1396 1395 1395
1451 1451 1452 1453 1454 1455 1456 1456 1457 1457 1457 1457 1456 1456 1454 1453 1451 1450 1447 1445 1443 1440 1437 1435 1432 1429 1426 1424 1421 1418 1414 1411 1408 1405 1403 1400 1397 1395 1392 1391 1390 1389 1388 1387
1449 1450 1451 1452 1452 1453 1454 1454 1455 1455 1455 1454 1454 1453 1451 1450 1448 1446 1444 1441 1439 1436 1433 1430 1427 1424 1421 1418 1415 1412 1409 1406 1403 1400 1397 1395 1392 1390 1387 1385 1383 1381 1381 1380
1446 1447 1449 1449 1450 1451 1452 1452 1452 1452 1452 1452 1451 1449 1448 1446 1444 1442 1439 1437 1434 1431 1428 1425 1422 1419 1416 1413 1409 1406 1403 1400 1397 1394 1392 1389 1386 1384 1382 1380 1377 1375 1374 1374
1444 1445 1446 1447 1448 1449 1449 1449 1450 1449 1449 1448 1447 1446 1444 1442 1440 1437 1435 1433 1429 1426 1423 1420 1416 1413 1410 1407 1403 1400 1397 1394 1391 1388 1385 1383 1380 1378 1376 1374 1372 1370 1369 1368
1441 1442 1443 1444 1445 1446 1447 1447 1447 1447 1446 1445 1443 1442 1440 1438 1435 1433 1431 1428 1425 1421 1418 1415 1411 1408 1404 1401 1397 1394 1391 1388 1385 1382 1380 1377 1375 1373 1371 1369 1366 1365 1364 1363
1438 1439 1441 1442 1443 1444 1444 1445 1444 1444 1443 1441 1440 1438 1436 1434 1431 1429 1426 1423 1420 1417 1414 1410 1407 1403 1399 1396 1392 1389 1386 1382 1380 1377 1374 1372 1370 1367 1365 1363 1361 1360 1358 1358
1435 1437 1439 1440 1441 1441 1442 1442 1441 1441 1440 1438 1436 1435 1433 1430 1428 1425 1422 1419 1415 1412 1409 1406 1402 1398 1394 1391 1388 1384 1381 1378 1375 1372 1369 1367 1364 1362 1360 1358 1356 1355 1354 1353
1433 1435 1437 1438 1439 1439 1439 1439 1439 1438 1437 1435 1433 1431 1429 1427 1424 1421 1418 1415 1412 1409 1405 1402 1398 1394 1390 1387 1383 1380 1376 1373 1370 1367 1364 1362 1359 1357 1355 1353 1352 1350 1349 1349
1431 1433 1435 1436 1437 1437 1437 1436 1436 1435 1433 1432 1430 1428 1425 1423 1421 1418 1414 1411 1409 1405 1401 1398 1394 1390 1387 1383 1380 1376 1373 1370 1367 1363 1361 1358 1355 1353 1351 1349 1348 1346 1345 1345
1430 1431 1433 1434 1434 1434 1434 1434 1433 1432 1430 1429 1427 1425 1422 1420 1417 1414 1412 1409 1405 1401 1398 1394 1390 1387 1384 1380 1376 1373 1369 1366 1363 1360 1357 1355 1352 1350 1348 1346 1345 1343 1342 1341
1429 1430 1431 1432 1432 1432 1431 1431 1430 1429 1427 1426 1424 1422 1419 1417 1414 1411 1408 1405 1401 1398 1395 1391 1387 1384 1381 1377 1373 1370 1366 1363 1360 1357 1354 1352 1350 1347 1345 1343 1342 1340 1339 1338
1427 1428 1429 1429 1429 1429 1429 1428 1427 1426 1424 1423 1421 1419 1416 1414 1411 1409 1405 1402 1399 1395 1391 1388 1385 1381 1378 1374 1371 1367 1364 1360 1357 1354 1352 1349 1347 1345 1343 1341 1339 1338 1337 1336
1425 1426 1427 1427 1427 1426 1426 1425 1424 1423 1421 1420 1418 1416 1414 1411 1408 1405 1402 1399 1395 1392 1389 1385 1382 1378 1375 1371 1368 1365 1362 1358 1355 1353 1350 1347 1345 1343 1341 1339 1337 1336 1334 1333
1423 1424 1424 1424 1424 1424 1423 1422 1421 1420 1418 1417 1415 1413 1411 1408 1406 1402 1399 1396 1393 1390 1386 1383 1379 1376 1372 1369 1366 1363 1360 1357 1354 1351 1348 1345 1343 1341 1339 1337 1335 1334 1332 1331
1420 1421 1421 1421 1421 1421 1420 1419 1418 1417 1415 1414 1412 1410 1408 1405 1403 1400 1397 1393 1390 1387 1384 1380 1377 1373 1370 1367 1364 1361 1358 1355 1352 1349 1346 1344 1342 1340 1338 1336 1334 1332 1331 1330